Billings, MT (59101)

9:06 AM MDT on August 30, 2016 (GMT -0600)
Jupiter Sulphur | | Change Station

Elev 3114 ft 45.78 °N, 108.49 °W | Updated 7 minutes ago

Mostly Cloudy
Mostly Cloudy
62.1 °F
Feels Like 62.1 °F
N
2.0
Wind Variable Wind from SSW
Gusts 3.0 mph

Today
High -- | Low -- °F
--% Chance of Precip.
Yesterday
High -- | Low -- °F
Precip. -- in
Pressure 30.07 in
Visibility 10.0 miles
Clouds Few 9500 ft
Mostly Cloudy 20000 ft
Dew Point 51 °F
Humidity 67%
Rainfall 0.00 in
Snow Depth Not available.
6:33 AM 7:54 PM
Waning Crescent, 3% visible
METAR KBIL 301453Z 00000KT 10SM FEW095 BKN200 18/11 A3015 RMK AO2 SLP181 T01780106 53008
Pressure 30.07 in
Visibility 10.0 miles
Clouds Few 9500 ft
Mostly Cloudy 20000 ft
Dew Point 51 °F
Humidity 67%
Rainfall 0.00 in
Snow Depth Not available.
6:33 AM 7:54 PM
Waning Crescent, 3% visible
METAR KBIL 301453Z 00000KT 10SM FEW095 BKN200 18/11 A3015 RMK AO2 SLP181 T01780106 53008

10-Day Weather Forecast

Almanac

Astronomy

Aug. 30, 2016 Rise Set
Actual Time
Civil Twilight
Nautical Twilight
Astronomical Twilight
Moon
Length of Visible Light
Length of Day
Tomorrow will be .
, % of the Moon is Illuminated

Today's Extremes

State Highs State Lows

Community

WunderPhotos

Upload Photos

1,935,853 photos uploaded!

WunderBlog® & News

Nearby

Air Quality

  Air Quality AQ Index Pollutant
Not available.

Snow Depth

Station Depth Elevation

Earthquake Activity

City Distance Mag. Time & Date
Minimum magnitude displayed is 2.5.

Coastal Water Temperatures

Place Temperature

Stations

Nearby Weather Stations

Station Location Temp. Windchill Dew Point Humidity Wind Precip. Elev Updated Type
                   

Watches & Warnings

There are currently no watches in effect.